Regional Weather Roundup
Issued by NWS New Orleans/Baton Rouge, LA

Home | Current Version | Previous Version | Text Only | Print | Product List | Glossary On
Versions: 1 2 3 4 5 6 7 8 9 10 11 12 13 14 15 16 17 18 19 20 21 22 23 24 25 26 27 28 29 30 31 32 33 34 35 36 37 38 39 40 41 42 43 44 45 46 47 48 49 50
721
ASUS44 KLIX 302307
RWRLIX
NEW ORLEANS REGIONAL WEATHER ROUNDUP
NATIONAL WEATHER SERVICE NEW ORLEANS LA
600 PM CDT MON MAR 30 2015

NOTE: "FAIR" INDICATES FEW OR NO CLOUDS BELOW 12,000 FEET WITH NO
      SIGNIFICANT WEATHER AND/OR OBSTRUCTIONS TO VISIBILITY.
      SKY/WX - SKY CONDITION AND SIGNIFICANT WEATHER.
      TMP - AIR TEMPERATURE.     DP    - DEWPOINT TEMPERATURE.
      RH  - RELATIVE HUMIDITY.   PRES  - PRESSURE.
      HI  - HEAT INDEX.          WCI   - WIND CHILL INDEX.

*  THESE STATIONS ARE NOT NWS OR FAA STATIONS AND ARE NOT UNDER
   NWS QUALITY CONTROL.

LAZ038-040-048-061>063-065>067-069-310000-
SOUTHEAST LOUISIANA

CITY           SKY/WX    TMP DP  RH WIND       PRES   REMARKS
N.O. AUDUBON     N/A     78  67  68 MISG        N/A
N.O. INTL ARPT MOSUNNY   79  60  52 W12       30.12F
N.O. LAKEFRONT MOSUNNY   81  62  52 E3        30.13S
SLIDELL        SUNNY     81  60  48 VRB7      30.11F
BATON ROUGE    MOSUNNY   80  61  52 SW13      30.11S
BOOTHVILLE     SUNNY     75  65  70 SW12      30.16S
BELLE CHASSE   MOSUNNY   76  62  62 SW12      30.12S
BOGALUSA*        N/A     83  52  33 W8        30.12S
GALLIANO*      CLEAR     78  63  59 SW12G21   30.16S
NEW ROADS*       N/A     80  57  45 SW12      30.11S
GONZALES*        N/A     78  61  55 SW9       30.13R
HAMMOND*       MOSUNNY   82  54  36 SW7       30.13S
HOUMA*         NOT AVBL
PORT FOURCHON* CLEAR     75  64  69 SW10      30.20S

$$

MSZ070-080>082-310000-
SOUTHERN MISSISSIPPI

CITY           SKY/WX    TMP DP  RH WIND       PRES   REMARKS
MCCOMB         PTSUNNY   80  55  42 SW10      30.11S
GULFPORT       SUNNY     75  64  68 S12       30.11F
BILOXI         MOSUNNY   73  66  77 SW16      30.11F
PASCAGOULA     SUNNY     74  64  71 S9        30.12F

$$

COASTAL OBSERVATIONS
LAKE AND NEARSHORE STATIONS

STATION/POSITION TIME  TEMP    WIND        PRES    WAVE
                       AIR SEA DIR/SP/G            HT/PER
                 (UTC) (F)     (DEG/KT/KT) (MB)    (FT/S)
PASCAGOULA       2200   73     200/ 13/ 17 1019.9
WAVELAND YACHT   2200   75 67  190/  9/ 13 1019.9
GRAND ISLE       2200   75 69  220/  9/ 12 1021.1
SOUTHWEST PASS   2200   77 55  210/  2/  3 1022.1
NEW CANAL        2200   75      50/  4/  5 1020.6
SHELL BEACH      2200   78 71  210/ 15/ 20 1020.2

OFFSHORE STATIONS

STATION/POSITION TIME  TEMP    WIND        PRES    WAVE
                       AIR SEA DIR/SP/G            HT/PER
                 (UTC) (F)     (DEG/KT/KT) (MB)    (FT/S)
64 S DAUPHIN ISL 2250   72 71  200/ 14/ 16 1021.7    3/ 5

$$




USA.gov is the U.S. government's official web portal to all federal, state and local government web resources and services.